Location: Dentlein
(49.1477°N, 10.4231°E)
Time: 21:09:49
(UTC+00:00)

NOSS 3-4 (A) - Pass Details

Date: 23 May 2024
Orbit: 801 x 1410 km, 63.4° (Epoch: 04 June)

Event Time Altitude Azimuth Distance (km) Brightness Sun altitude
Rises 00:34:03 0° 314° (NW) 3,790 6.9 -18.0°
Reaches altitude 10° 00:36:41 10° 307° (NW) 2,921 6.2 -17.9°
Maximum altitude 00:43:07 40° 241° (WSW) 1,678 4.4 -17.5°
Enters shadow 00:47:12 24° 189° (S) 2,352 4.9 -17.3°
